User: anonymous   Login
Location: Unspecified
(0.0000°N, 0.0000°E)
Time: 04:48:36
(UTC+00:00)
Language:

SDS-1 - Orbit

View from above orbital plane
View from above orbital plane
View from above satellite
View from above satellite

Ground track
Ground track

The orbit data is extracted from the following two-line orbital elements,

1 33497U 09002F   18292.43208209  .00000088  00000-0  23056-4 0  9993
2 33497  98.3444  83.7512 0002904 122.8062 237.3423 14.70481657522075
Epoch (UTC): 19 October 2018 10:22:11
Eccentricity: 0.0002904
inclination: 98.3444°
perigee height: 657 km
apogee height: 661 km
right ascension of ascending node: 83.7512°
argument of perigee: 122.8062°
revolutions per day: 14.70481657
mean anomaly at epoch: 237.3423°
orbit number at epoch: 52207

The dashed part of the orbit path shows where the satellite is in the earth's shadow,  

DLR